Time,TemperatureF,DewpointF,PressureIn,WindDirection,WindDirectionDegrees,WindSpeedMPH,WindSpeedGustMPH,Humidity,HourlyPrecipIn,Conditions,Clouds,dailyrainin,SolarRadiationWatts/m^2,SoftwareType,DateUTC
2013-03-15 00:02:00,67.0,43.0,-100.00,South,170,11.0,18.0,42,0.00,,,0.00,0.000000,,2013-03-15 05:02:00,
2013-03-15 00:32:00,66.0,43.0,-100.00,South,172,11.0,17.0,44,0.00,,,0.00,0.000000,,2013-03-15 05:32:00,
2013-03-15 00:42:00,66.0,43.0,-100.00,South,172,11.0,17.0,44,0.00,,,0.00,0.000000,,2013-03-15 05:42:00,
2013-03-15 00:52:00,66.0,43.0,-100.00,South,172,11.0,17.0,44,0.00,,,0.00,0.000000,,2013-03-15 05:52:00,
2013-03-15 01:02:00,66.0,43.0,-100.00,South,172,11.0,17.0,44,0.00,,,0.00,0.000000,,2013-03-15 06:02:00,
2013-03-15 01:32:00,65.0,44.0,-100.00,South,175,10.0,16.0,46,0.00,,,0.00,0.000000,,2013-03-15 06:32:00,
2013-03-15 01:42:00,65.0,44.0,-100.00,South,175,10.0,16.0,46,0.00,,,0.00,0.000000,,2013-03-15 06:42:00,
2013-03-15 01:53:00,65.0,44.0,-100.00,South,175,10.0,16.0,46,0.00,,,0.00,0.000000,,2013-03-15 06:53:00,
2013-03-15 02:02:00,65.0,44.0,-100.00,South,175,10.0,16.0,46,0.00,,,0.00,0.000000,,2013-03-15 07:02:00,
2013-03-15 02:32:00,63.0,46.0,-100.00,SSW,192,10.0,18.0,54,0.00,,,0.00,0.000000,,2013-03-15 07:32:00,
2013-03-15 02:42:00,63.0,46.0,-100.00,SSW,192,10.0,18.0,54,0.00,,,0.00,0.000000,,2013-03-15 07:42:00,
2013-03-15 02:52:00,63.0,46.0,-100.00,SSW,192,10.0,18.0,54,0.00,,,0.00,0.000000,,2013-03-15 07:52:00,
2013-03-15 03:02:00,63.0,46.0,-100.00,SSW,192,10.0,18.0,54,0.00,,,0.00,0.000000,,2013-03-15 08:02:00,
2013-03-15 03:33:00,60.0,47.0,-100.00,SSW,195,9.0,19.0,63,0.00,,,0.00,0.000000,,2013-03-15 08:33:00,
2013-03-15 03:42:00,60.0,47.0,-100.00,SSW,195,9.0,19.0,63,0.00,,,0.00,0.000000,,2013-03-15 08:42:00,
2013-03-15 03:52:00,60.0,47.0,-100.00,SSW,195,9.0,19.0,63,0.00,,,0.00,0.000000,,2013-03-15 08:52:00,
2013-03-15 04:02:00,60.0,47.0,-100.00,SSW,195,9.0,19.0,63,0.00,,,0.00,0.000000,,2013-03-15 09:02:00,
2013-03-15 04:33:00,59.0,49.0,-100.00,South,189,9.0,17.0,69,0.00,,,0.00,0.000000,,2013-03-15 09:33:00,
2013-03-15 04:43:00,59.0,49.0,-100.00,South,189,9.0,17.0,69,0.00,,,0.00,0.000000,,2013-03-15 09:43:00,
2013-03-15 04:53:00,59.0,49.0,-100.00,South,189,9.0,17.0,69,0.00,,,0.00,0.000000,,2013-03-15 09:53:00,
2013-03-15 05:03:00,59.0,49.0,-100.00,South,189,9.0,17.0,69,0.00,,,0.00,0.000000,,2013-03-15 10:03:00,
2013-03-15 05:33:00,58.0,50.0,-100.00,SSW,192,9.0,15.0,74,0.00,,,0.00,0.000000,,2013-03-15 10:33:00,
2013-03-15 05:43:00,58.0,50.0,-100.00,SSW,192,9.0,15.0,74,0.00,,,0.00,0.000000,,2013-03-15 10:43:00,
2013-03-15 05:52:00,58.0,50.0,-100.00,SSW,192,9.0,15.0,74,0.00,,,0.00,0.000000,,2013-03-15 10:52:00,
2013-03-15 06:03:00,58.0,50.0,-100.00,SSW,192,9.0,15.0,74,0.00,,,0.00,0.000000,,2013-03-15 11:03:00,
2013-03-15 06:32:00,58.0,50.0,-100.00,SSW,194,9.0,16.0,76,0.00,,,0.00,0.000000,,2013-03-15 11:32:00,
2013-03-15 06:42:00,58.0,50.0,-100.00,SSW,194,9.0,16.0,76,0.00,,,0.00,0.000000,,2013-03-15 11:42:00,
2013-03-15 06:52:00,58.0,50.0,-100.00,SSW,194,9.0,16.0,76,0.00,,,0.00,0.000000,,2013-03-15 11:52:00,
2013-03-15 07:02:00,58.0,50.0,-100.00,SSW,194,9.0,16.0,76,0.00,,,0.00,0.000000,,2013-03-15 12:02:00,
2013-03-15 07:32:00,57.0,50.0,-100.00,SSW,195,10.0,19.0,77,0.00,,,0.00,0.000000,,2013-03-15 12:32:00,
2013-03-15 07:42:00,57.0,50.0,-100.00,SSW,195,10.0,19.0,77,0.00,,,0.00,0.000000,,2013-03-15 12:42:00,
2013-03-15 07:52:00,57.0,50.0,-100.00,SSW,195,10.0,19.0,77,0.00,,,0.00,0.000000,,2013-03-15 12:52:00,
2013-03-15 08:02:00,57.0,50.0,-100.00,SSW,195,10.0,19.0,77,0.00,,,0.00,0.000000,,2013-03-15 13:02:00,
2013-03-15 08:32:00,57.0,51.0,-100.00,SSW,192,9.0,18.0,79,0.00,,,0.00,8.000000,,2013-03-15 13:32:00,
2013-03-15 08:42:00,57.0,51.0,-100.00,SSW,192,9.0,18.0,79,0.00,,,0.00,8.000000,,2013-03-15 13:42:00,
2013-03-15 08:52:00,57.0,51.0,-100.00,SSW,192,9.0,18.0,79,0.00,,,0.00,8.000000,,2013-03-15 13:52:00,
2013-03-15 09:02:00,57.0,51.0,-100.00,SSW,192,9.0,18.0,79,0.00,,,0.00,8.000000,,2013-03-15 14:02:00,
2013-03-15 09:33:00,60.0,52.0,-100.00,SSW,194,10.0,19.0,76,0.00,,,0.00,62.000000,,2013-03-15 14:33:00,
2013-03-15 09:42:00,60.0,52.0,-100.00,SSW,194,10.0,19.0,76,0.00,,,0.00,62.000000,,2013-03-15 14:42:00,
2013-03-15 09:53:00,60.0,52.0,-100.00,SSW,194,10.0,19.0,76,0.00,,,0.00,62.000000,,2013-03-15 14:53:00,
2013-03-15 10:02:00,60.0,52.0,-100.00,SSW,194,10.0,19.0,76,0.00,,,0.00,62.000000,,2013-03-15 15:02:00,
2013-03-15 10:33:00,62.0,52.0,-100.00,SSW,200,11.0,19.0,71,0.00,,,0.00,289.000000,,2013-03-15 15:33:00,
2013-03-15 10:43:00,62.0,52.0,-100.00,SSW,200,11.0,19.0,71,0.00,,,0.00,289.000000,,2013-03-15 15:43:00,
2013-03-15 10:53:00,62.0,52.0,-100.00,SSW,200,11.0,19.0,71,0.00,,,0.00,289.000000,,2013-03-15 15:53:00,
2013-03-15 11:03:00,62.0,52.0,-100.00,SSW,200,11.0,19.0,71,0.00,,,0.00,289.000000,,2013-03-15 16:03:00,
2013-03-15 11:32:00,69.0,55.0,-100.00,SSW,212,8.0,17.0,62,0.00,,,0.00,607.000000,,2013-03-15 16:32:00,
2013-03-15 11:42:00,69.0,55.0,-100.00,SSW,212,8.0,17.0,62,0.00,,,0.00,607.000000,,2013-03-15 16:42:00,
2013-03-15 11:52:00,69.0,55.0,-100.00,SSW,212,8.0,17.0,62,0.00,,,0.00,607.000000,,2013-03-15 16:52:00,
2013-03-15 12:02:00,69.0,55.0,-100.00,SSW,212,8.0,17.0,62,0.00,,,0.00,607.000000,,2013-03-15 17:02:00,
2013-03-15 12:32:00,72.0,51.0,-100.00,SSW,204,12.0,20.0,48,0.00,,,0.00,773.000000,,2013-03-15 17:32:00,
2013-03-15 12:43:00,72.0,51.0,-100.00,SSW,204,12.0,20.0,48,0.00,,,0.00,773.000000,,2013-03-15 17:43:00,
2013-03-15 12:53:00,72.0,51.0,-100.00,SSW,204,12.0,20.0,48,0.00,,,0.00,773.000000,,2013-03-15 17:53:00,
2013-03-15 13:02:00,72.0,51.0,-100.00,SSW,204,12.0,20.0,48,0.00,,,0.00,773.000000,,2013-03-15 18:02:00,
2013-03-15 13:32:00,78.0,50.0,-100.00,SSW,200,9.0,21.0,38,0.00,,,0.00,902.000000,,2013-03-15 18:32:00,
2013-03-15 13:42:00,78.0,50.0,-100.00,SSW,200,9.0,21.0,38,0.00,,,0.00,902.000000,,2013-03-15 18:42:00,
2013-03-15 13:52:00,78.0,50.0,-100.00,SSW,200,9.0,21.0,38,0.00,,,0.00,902.000000,,2013-03-15 18:52:00,
2013-03-15 14:02:00,78.0,50.0,-100.00,SSW,200,9.0,21.0,38,0.00,,,0.00,902.000000,,2013-03-15 19:02:00,
2013-03-15 14:32:00,79.0,46.0,-100.00,SSW,194,11.0,20.0,31,0.00,,,-99.99,949.000000,,2013-03-15 19:32:00,
2013-03-15 14:42:00,79.0,46.0,-100.00,SSW,194,11.0,20.0,31,0.00,,,-99.99,949.000000,,2013-03-15 19:42:00,
2013-03-15 14:52:00,79.0,46.0,-100.00,SSW,194,11.0,20.0,31,0.00,,,-99.99,949.000000,,2013-03-15 19:52:00,
2013-03-15 15:02:00,79.0,46.0,-100.00,SSW,194,11.0,20.0,31,0.00,,,-99.99,949.000000,,2013-03-15 20:02:00,
2013-03-15 15:32:00,81.0,44.0,-100.00,South,188,11.0,21.0,27,0.00,,,0.00,924.000000,,2013-03-15 20:32:00,
2013-03-15 15:42:00,81.0,44.0,-100.00,South,188,11.0,21.0,27,0.00,,,0.00,924.000000,,2013-03-15 20:42:00,
2013-03-15 15:52:00,81.0,44.0,-100.00,South,188,11.0,21.0,27,0.00,,,0.00,924.000000,,2013-03-15 20:52:00,
2013-03-15 16:02:00,81.0,44.0,-100.00,South,188,11.0,21.0,27,0.00,,,0.00,924.000000,,2013-03-15 21:02:00,
2013-03-15 16:33:00,81.0,41.0,-100.00,SSW,199,14.0,23.0,24,0.00,,,0.00,828.000000,,2013-03-15 21:33:00,
2013-03-15 16:43:00,81.0,41.0,-100.00,SSW,199,14.0,23.0,24,0.00,,,0.00,828.000000,,2013-03-15 21:43:00,
2013-03-15 16:53:00,81.0,41.0,-100.00,SSW,199,14.0,23.0,24,0.00,,,0.00,828.000000,,2013-03-15 21:53:00,
2013-03-15 17:03:00,81.0,41.0,-100.00,SSW,199,14.0,23.0,24,0.00,,,0.00,828.000000,,2013-03-15 22:03:00,
2013-03-15 17:33:00,81.0,44.0,-100.00,South,175,12.0,24.0,27,0.00,,,0.00,665.000000,,2013-03-15 22:33:00,
2013-03-15 17:42:00,81.0,44.0,-100.00,South,175,12.0,24.0,27,0.00,,,0.00,665.000000,,2013-03-15 22:42:00,
2013-03-15 17:53:00,81.0,44.0,-100.00,South,175,12.0,24.0,27,0.00,,,0.00,665.000000,,2013-03-15 22:53:00,
2013-03-15 18:02:00,81.0,44.0,-100.00,South,175,12.0,24.0,27,0.00,,,0.00,665.000000,,2013-03-15 23:02:00,
2013-03-15 18:32:00,80.0,43.0,-100.00,South,183,12.0,25.0,27,0.00,,,0.00,450.000000,,2013-03-15 23:32:00,
2013-03-15 18:42:00,80.0,43.0,-100.00,South,183,12.0,25.0,27,0.00,,,0.00,450.000000,,2013-03-15 23:42:00,
2013-03-15 18:53:00,80.0,43.0,-100.00,South,183,12.0,25.0,27,0.00,,,0.00,450.000000,,2013-03-15 23:53:00,
2013-03-15 19:02:00,80.0,43.0,-100.00,South,183,12.0,25.0,27,0.00,,,0.00,450.000000,,2013-03-16 00:02:00,
2013-03-15 19:32:00,77.0,41.0,-100.00,South,175,12.0,23.0,28,0.00,,,-99.99,212.000000,,2013-03-16 00:32:00,
2013-03-15 19:42:00,77.0,41.0,-100.00,South,175,12.0,23.0,28,0.00,,,-99.99,212.000000,,2013-03-16 00:42:00,
2013-03-15 19:52:00,77.0,41.0,-100.00,South,175,12.0,23.0,28,0.00,,,-99.99,212.000000,,2013-03-16 00:52:00,
2013-03-15 20:02:00,77.0,41.0,-100.00,South,175,12.0,23.0,28,0.00,,,-99.99,212.000000,,2013-03-16 01:02:00,
2013-03-15 20:32:00,73.0,38.0,-100.00,SSE,160,12.0,21.0,28,0.00,,,0.00,11.000000,,2013-03-16 01:32:00,
2013-03-15 20:42:00,73.0,38.0,-100.00,SSE,160,12.0,21.0,28,0.00,,,0.00,11.000000,,2013-03-16 01:42:00,
2013-03-15 20:53:00,73.0,38.0,-100.00,SSE,160,12.0,21.0,28,0.00,,,0.00,11.000000,,2013-03-16 01:53:00,
2013-03-15 21:02:00,73.0,38.0,-100.00,SSE,160,12.0,21.0,28,0.00,,,0.00,11.000000,,2013-03-16 02:02:00,
2013-03-15 21:33:00,72.0,39.0,-100.00,South,172,13.0,21.0,30,0.00,,,0.00,0.000000,,2013-03-16 02:33:00,
2013-03-15 21:43:00,72.0,39.0,-100.00,South,172,13.0,21.0,30,0.00,,,0.00,0.000000,,2013-03-16 02:43:00,
2013-03-15 21:52:00,72.0,39.0,-100.00,South,172,13.0,21.0,30,0.00,,,0.00,0.000000,,2013-03-16 02:52:00,
2013-03-15 22:02:00,72.0,39.0,-100.00,South,172,13.0,21.0,30,0.00,,,0.00,0.000000,,2013-03-16 03:02:00,
2013-03-15 22:33:00,71.0,40.0,-100.00,SSE,168,14.0,23.0,32,0.00,,,0.00,1.000000,,2013-03-16 03:33:00,
2013-03-15 22:43:00,71.0,40.0,-100.00,SSE,168,14.0,23.0,32,0.00,,,0.00,1.000000,,2013-03-16 03:43:00,
2013-03-15 22:53:00,71.0,40.0,-100.00,SSE,168,14.0,23.0,32,0.00,,,0.00,1.000000,,2013-03-16 03:53:00,
2013-03-15 23:02:00,71.0,40.0,-100.00,SSE,168,14.0,23.0,32,0.00,,,0.00,1.000000,,2013-03-16 04:02:00,
2013-03-15 23:33:00,69.0,42.0,-100.00,South,170,14.0,22.0,38,0.00,,,0.00,0.000000,,2013-03-16 04:33:00,
2013-03-15 23:43:00,69.0,42.0,-100.00,South,170,14.0,22.0,38,0.00,,,0.00,0.000000,,2013-03-16 04:43:00,
2013-03-15 23:53:00,69.0,42.0,-100.00,South,170,14.0,22.0,38,0.00,,,0.00,0.000000,,2013-03-16 04:53:00,